Hourly Weather Barlogi

Today, 8 May, Saturday

Time Temperature Precipitation Wind Pressure Humidity
00:00 +2°C° 0 mm 3 mps 748 mmHg 91%
01:00 +1°C° 0 mm 3 mps 748 mmHg 96%
02:00 +1°C° 0 mm 3 mps 749 mmHg 95%
03:00 +1°C° 0 mm 3 mps 749 mmHg 95%
04:00 +1°C° 0 mm 3 mps 749 mmHg 95%
05:00 +2°C° 0 mm 3 mps 750 mmHg 90%
06:00 +3°C° 0 mm 4 mps 750 mmHg 86%
07:00 +4°C° 0 mm 4 mps 750 mmHg 81%
08:00 +5°C° 0 mm 4 mps 751 mmHg 78%
09:00 +5°C° 0 mm 5 mps 751 mmHg 75%
10:00 +6°C° 0 mm 5 mps 751 mmHg 71%
11:00 +6°C° 0 mm 5 mps 751 mmHg 68%
12:00 +7°C° 0 mm 5 mps 751 mmHg 64%
13:00 +7°C° 0 mm 5 mps 752 mmHg 61%
14:00 +8°C° 0 mm 5 mps 752 mmHg 56%
15:00 +10°C° 0 mm 4 mps 752 mmHg 51%
16:00 +10°C° 0 mm 4 mps 752 mmHg 46%
17:00 +9°C° 0 mm 3 mps 752 mmHg 50%
18:00 +8°C° 0 mm 2 mps 752 mmHg 55%
19:00 +8°C° 0 mm 1 mps 752 mmHg 59%
20:00 +7°C° 0 mm 1 mps 752 mmHg 62%
21:00 +6°C° 0 mm 1 mps 752 mmHg 64%
22:00 +5°C° 0 mm 1 mps 753 mmHg 66%
23:00 +4°C° 0 mm 2 mps 753 mmHg 70%

Tomorrow, 9 May, Sunday

Time Temperature Precipitation Wind Pressure Humidity
00:00 +4°C° 0 mm 2 mps 752 mmHg 75%
01:00 +3°C° 0 mm 2 mps 752 mmHg 79%
02:00 +3°C° 0 mm 3 mps 752 mmHg 79%
03:00 +3°C° 0 mm 3 mps 752 mmHg 79%
04:00 +3°C° 0 mm 3 mps 752 mmHg 80%
05:00 +4°C° 0 mm 4 mps 751 mmHg 77%
06:00 +5°C° 0 mm 4 mps 751 mmHg 74%
07:00 +6°C° 0 mm 4 mps 751 mmHg 71%
08:00 +7°C° 0 mm 4 mps 751 mmHg 72%
09:00 +7°C° 0 mm 4 mps 751 mmHg 74%
10:00 +7°C° 0 mm 5 mps 751 mmHg 75%
11:00 +10°C° 0 mm 5 mps 750 mmHg 68%
12:00 +14°C° 0 mm 5 mps 750 mmHg 61%
13:00 +17°C° 0 mm 6 mps 750 mmHg 54%
14:00 +17°C° 0 mm 5 mps 750 mmHg 55%
15:00 +19°C° 0 mm 5 mps 750 mmHg 57%
16:00 +19°C° 0 mm 5 mps 749 mmHg 59%
17:00 +18°C° 0 mm 4 mps 749 mmHg 65%
18:00 +17°C° 0 mm 4 mps 749 mmHg 72%
19:00 +16°C° 0 mm 3 mps 749 mmHg 79%
20:00 +14°C° 0 mm 3 mps 749 mmHg 83%
21:00 +13°C° 0 mm 3 mps 749 mmHg 88%
22:00 +12°C° 0 mm 3 mps 749 mmHg 92%
23:00 +11°C° 0 mm 3 mps 750 mmHg 92%

Day after tomorrow, 10 May, Monday

Time Temperature Precipitation Wind Pressure Humidity
00:00 +10°C° 0 mm 3 mps 750 mmHg 93%
01:00 +10°C° 0 mm 3 mps 750 mmHg 93%
02:00 +9°C° 0 mm 3 mps 750 mmHg 89%
03:00 +9°C° 0 mm 3 mps 749 mmHg 86%
04:00 +7°C° 0 mm 4 mps 749 mmHg 83%
05:00 +10°C° 0 mm 4 mps 749 mmHg 77%
06:00 +12°C° 0 mm 5 mps 749 mmHg 71%
07:00 +14°C° 0 mm 5 mps 749 mmHg 64%
08:00 +16°C° 0 mm 6 mps 749 mmHg 59%
09:00 +19°C° 0 mm 6 mps 749 mmHg 54%
10:00 +21°C° 0 mm 7 mps 749 mmHg 48%
11:00 +21°C° 0 mm 7 mps 748 mmHg 48%
12:00 +22°C° 0 mm 7 mps 748 mmHg 47%
13:00 +23°C° 0 mm 7 mps 748 mmHg 46%
14:00 +23°C° 0 mm 7 mps 748 mmHg 49%
15:00 +23°C° 0 mm 6 mps 748 mmHg 52%
16:00 +23°C° 0 mm 6 mps 748 mmHg 55%
17:00 +22°C° 0 mm 5 mps 748 mmHg 62%
18:00 +20°C° 0 mm 4 mps 748 mmHg 69%
19:00 +19°C° 0 mm 3 mps 748 mmHg 75%
20:00 +18°C° 0 mm 3 mps 748 mmHg 81%
21:00 +16°C° 0 mm 3 mps 748 mmHg 87%
22:00 +15°C° 0 mm 2 mps 749 mmHg 93%
23:00 +15°C° 0 mm 2 mps 748 mmHg 94%

11 May, Tuesday

Time Temperature Precipitation Wind Pressure Humidity
00:00 +14°C° 0 mm 2 mps 748 mmHg 95%
01:00 +13°C° 0 mm 3 mps 748 mmHg 95%
02:00 +12°C° 0 mm 3 mps 748 mmHg 95%
03:00 +12°C° 0 mm 3 mps 748 mmHg 94%
04:00 +12°C° 0 mm 3 mps 748 mmHg 94%
05:00 +13°C° 0 mm 4 mps 748 mmHg 88%
06:00 +14°C° 0 mm 4 mps 748 mmHg 82%
07:00 +16°C° 0 mm 5 mps 747 mmHg 77%
08:00 +17°C° 0 mm 5 mps 747 mmHg 71%
09:00 +20°C° 0 mm 6 mps 747 mmHg 65%
10:00 +22°C° 0 mm 6 mps 747 mmHg 58%
11:00 +23°C° 0 mm 6 mps 746 mmHg 56%
12:00 +24°C° 0 mm 7 mps 746 mmHg 54%
13:00 +26°C° 0 mm 7 mps 746 mmHg 52%
14:00 +26°C° 0 mm 7 mps 746 mmHg 53%
15:00 +26°C° 0 mm 6 mps 745 mmHg 54%
16:00 +26°C° 0 mm 6 mps 745 mmHg 56%
17:00 +24°C° 0 mm 6 mps 745 mmHg 62%
18:00 +23°C° 0 mm 5 mps 745 mmHg 68%
19:00 +21°C° 0 mm 5 mps 745 mmHg 74%
20:00 +20°C° 0 mm 5 mps 745 mmHg 76%
21:00 +19°C° 0 mm 5 mps 746 mmHg 78%
22:00 +17°C° 0 mm 5 mps 746 mmHg 80%
23:00 +17°C° 0 mm 5 mps 746 mmHg 80%

12 May, Wednesday

Time Temperature Precipitation Wind Pressure Humidity
00:00 +16°C° 0 mm 5 mps 746 mmHg 80%
01:00 +15°C° 0 mm 5 mps 746 mmHg 79%
02:00 +14°C° 0 mm 5 mps 746 mmHg 78%
03:00 +13°C° 0 mm 5 mps 746 mmHg 78%
04:00 +13°C° 0 mm 5 mps 746 mmHg 77%
05:00 +13°C° 0 mm 5 mps 746 mmHg 73%
06:00 +14°C° 0 mm 5 mps 746 mmHg 69%
07:00 +14°C° 0 mm 6 mps 746 mmHg 65%
08:00 +16°C° 0 mm 6 mps 746 mmHg 61%
09:00 +17°C° 0 mm 6 mps 746 mmHg 57%
10:00 +20°C° 0 mm 6 mps 746 mmHg 54%
11:00 +21°C° 0 mm 6 mps 746 mmHg 52%
12:00 +22°C° 0 mm 6 mps 746 mmHg 51%
13:00 +23°C° 0 mm 7 mps 745 mmHg 49%
14:00 +23°C° 0 mm 6 mps 745 mmHg 51%
15:00 +23°C° 0 mm 6 mps 745 mmHg 53%
16:00 +23°C° 0 mm 6 mps 745 mmHg 55%
17:00 +21°C° 0 mm 6 mps 746 mmHg 59%
18:00 +20°C° 0 mm 6 mps 746 mmHg 62%
19:00 +17°C° 0 mm 5 mps 746 mmHg 66%
20:00 +16°C° 0 mm 5 mps 746 mmHg 71%
21:00 +15°C° 0 mm 4 mps 746 mmHg 77%
22:00 +14°C° 0 mm 4 mps 746 mmHg 82%
23:00 +13°C° 0 mm 4 mps 747 mmHg 82%

13 May, Thursday

Time Temperature Precipitation Wind Pressure Humidity
00:00 +12°C° 0 mm 4 mps 747 mmHg 81%
01:00 +11°C° 0 mm 4 mps 747 mmHg 81%
02:00 +10°C° 0 mm 4 mps 747 mmHg 84%
03:00 +9°C° 0 mm 3 mps 747 mmHg 86%
04:00 +9°C° 0 mm 3 mps 747 mmHg 89%
05:00 +10°C° 0 mm 3 mps 747 mmHg 84%
06:00 +11°C° 0 mm 4 mps 747 mmHg 78%
07:00 +12°C° 0 mm 4 mps 747 mmHg 73%
08:00 +13°C° 0 mm 4 mps 747 mmHg 66%
09:00 +15°C° 0 mm 4 mps 746 mmHg 60%
10:00 +17°C° 0 mm 4 mps 746 mmHg 54%
11:00 +17°C° 0 mm 4 mps 746 mmHg 55%
12:00 +17°C° 0 mm 4 mps 746 mmHg 56%
13:00 +15°C° 0 mm 4 mps 746 mmHg 57%
14:00 +15°C° 0 mm 4 mps 746 mmHg 56%
15:00 +16°C° 0 mm 3 mps 745 mmHg 56%
16:00 +16°C° 0 mm 3 mps 745 mmHg 55%
17:00 +15°C° 0 mm 2 mps 745 mmHg 60%
18:00 +15°C° 0 mm 2 mps 745 mmHg 64%
19:00 +14°C° 0 mm 1 mps 745 mmHg 69%
20:00 +13°C° 0 mm 1 mps 745 mmHg 71%
21:00 +12°C° 0 mm 1 mps 744 mmHg 74%
22:00 +12°C° 0 mm 1 mps 744 mmHg 77%
23:00 +11°C° 0 mm 1 mps 744 mmHg 79%
Show more